Individual YR Submissions

/Individual YR Submissions

Individual YR Submissions



Showing results for Kenneth Petersen
Year Rounder submissions are verified and standings are posted monthly. Questions? Contact the Year Rounder team.
2019 Submissions
(Rides that have a "Y" in the standings column are included in the current standings. Verified rides not in the current standings will be included next time.)

Standings were last generated on
2020-03-09 13:00:55.
# event date event name distance (unit) elevation (unit) ride type bike type verified standings
12019-01-04Friday Century Endurance Ride115.30 miles0 feetpersonalstandard2019-01-05YY
22019-01-06Solo Sunday Sunny Century101.80 miles0 feetpersonalstandard2019-01-12YY
32019-01-13SWCC Super Strava Sunday109.60 miles1014 feetpersonalstandard2019-02-01YY
42019-01-20Windy Solo Sunday Century105.20 miles1457 feetpersonalstandard2019-02-01YY
52019-01-26Solo Endurance w/Technical Complication93.58 miles840 feetpersonalstandard2019-02-01YY
62019-02-03Pace Bend Ultra 6 Hour TT130.40 miles8684 feetorganizedstandard2019-02-04YY
72019-02-09Solo Endurance Ride91.20 miles0 feetpersonalstandard2019-02-11YY
82019-02-15Solo Friday Tempo93.50 miles0 feetpersonalstandard2019-02-16YY
92019-02-24Kate’s Ride XXL124.60 miles0 feetpersonalstandard2019-02-25YY
102019-03-03KICKR Session: Mental and Physical Endurance100.40 miles0 feetindoorstandard2019-03-10YY
112019-03-17Sunday Century in Solo Mode107.40 miles0 feetpersonalstandard2019-03-20YY
122019-03-23Texas RAAM 200 Challenge211.60 miles9948 feetorganizedstandard2019-03-30YY
132019-03-31Solo Sunday Century @ Endurance Pace107.30 miles0 feetpersonalstandard2019-03-31YY
142019-04-05Solo Friday Century120.50 miles0 feetpersonalstandard2019-04-06YY
152019-04-19Good Friday Century w/SWCC110.50 miles0 feetpersonalstandard2019-04-21YY
162019-04-21Sunday Century Endurance Miles114.14 miles0 feetpersonalstandard2019-04-21YY
172019-04-27Double Century TT200.00 miles0 feetpersonalstandard2019-04-28YY
182019-05-05Sunday Century on Gravel Bike104.70 miles0 feetpersonalstandard2019-05-05YY
192019-05-11Texas Ultra Spirit 6 Hour TT119.54 miles0 feetorganizedstandard2019-05-12YY
202019-05-18Saturday Gravel Bike Ride91.80 miles0 feetpersonalstandard2019-05-18YY
212019-06-09Sunday Recovery Ride XL112.50 miles0 feetpersonalstandard2019-06-09YY
222019-06-16Sunday Century: Nice & Easy on GG103.50 miles0 feetpersonalstandard2019-06-16YY
232019-06-29Texas 100 Miles Gravel Championship100.80 miles0 feetorganizedstandard2019-07-02YY
242019-07-04Endurance Miles w/Sprinkles of Tempo133.10 miles0 feetpersonalstandard2019-07-04YY
252019-07-14TT Century - Endurance Miles115.97 miles0 feetpersonalstandard2019-07-17YY
262019-07-21Katy Flatlands Century94.20 miles0 feetpersonalstandard2019-07-22YY
272019-07-28Solo Sunday Century - Steady100.85 miles0 feetpersonalstandard2019-08-02YY
282019-08-04Endurance Ride on Gravel Bike107.20 miles0 feetpersonalstandard2019-08-07YY
292019-08-11Solo Sunday Endurance Miles + Xtra136.00 miles0 feetpersonalstandard2019-08-17YY
302019-08-18Sunday Endurance Miles - some w/SWCC130.50 miles0 feetpersonalstandard2019-08-26YY
312019-08-25Solo Sunday Century - Nice and Semi-Easy105.40 miles0 feetpersonalstandard2019-08-26YY
322019-09-01Sunday Century w/Tempo Segments105.20 miles0 feetpersonalstandard2019-09-01YY
332019-09-086 Hr TT in Endurance Mode135.90 miles0 feetpersonalstandard2019-09-12YY
342019-09-15Sunday Century Slug106.30 miles0 feetpersonalstandard2019-09-22YY
352019-09-22Solo Century Endurance102.40 miles0 feetpersonalstandard2019-09-22YY
362019-09-28El Camino 105 Gravel Grinder107.46 miles6266 feetorganizedstandard2019-10-09YY
372019-10-13The Big Loop: Endurance Miles139.99 miles0 feetpersonalstandard2019-10-13YY
382019-10-20Endurance Miles in Robo Mode101.40 miles0 feetpersonalstandard2019-10-20YY
392019-11-06Southern Medium Loop92.61 miles0 feetpersonalstandard2019-11-08YY
402019-11-23Windy Century - The Northern Loop107.55 miles0 feetpersonalstandard2019-11-23YY
412019-11-27Pre-Gluttony Century - Endurance113.36 miles0 feetpersonalstandard2019-11-27YY
422019-11-29Black Friday Century - Ride w/SWCC108.30 miles0 feetpersonalstandard2019-11-29YY
432019-12-01The Northern Loop - Sunday Century106.50 miles0 feetpersonalstandard2019-12-01YY
442019-12-08Sunday Slug - Endu Miles96.05 miles0 feetpersonalstandard2019-12-10YY
452019-12-14The Northern Loop Revisited111.21 miles0 feetpersonalstandard2019-12-18YY
462019-12-15Sunday Century - Recovery Ride102.95 miles0 feetpersonalstandard2019-12-18YY
472019-12-24Xmas Eve Century103.52 miles0 feetpersonalstandard2019-12-26YY
482019-12-26Boxing Day Endu Miles90.95 miles0 feetpersonalstandard2019-12-26YY
492019-12-30Gravel Grinder Century: Base Miles110.61 miles1352 feetpersonalstandard2019-12-31YY
502019-12-31NYE Tempo Ride w/SWCC110.67 miles945 feetpersonalstandard2019-12-31YY